Precipitable_Water
0.65 0.65 0.65 0.64 0.63 0.62 0.62 0.62 0.62 0.61 0.60 0.60 0.58 0.57 0.56 0.55 0.55 0.55 0.54 0.55 0.54 0.53 0.53 0.51 0.50 0.48 0.47 0.47 0.47 0.46 0.46 0.36 0.29 0.25 0.23 0.20 0.22 0.24 0.25 0.26 0.32 0.34 0.34 0.31 0.27 0.21 0.18 0.20 0.18 0.22 0.22 0.25 0.25 0.23 0.28 0.26 0.26 0.21 0.14 0.12 0.10 0.11 0.10 0.14 0.14 0.17 0.22 0.19 0.20 0.20 0.21 0.21 0.20 0.26 0.37 0.55 0.52 0.53 0.59 0.63 0.74 0.82 0.80 0.91 1.01 1.09 1.18 1.24
0.64 0.66 0.66 0.65 0.64 0.63 0.64 0.63 0.63 0.63 0.62 0.61 0.60 0.58 0.57 0.56 0.54 0.54 0.55 0.53 0.53 0.53 0.52 0.51 0.49 0.48 0.47 0.47 0.47 0.48 0.43 0.34 0.25 0.25 0.21 0.26 0.26 0.25 0.25 0.27 0.35 0.38 0.40 0.29 0.23 0.19 0.17 0.17 0.20 0.22 0.22 0.20 0.28 0.23 0.25 0.21 0.24 0.16 0.14 0.13 0.09 0.12 0.13 0.16 0.17 0.18 0.21 0.21 0.20 0.21 0.22 0.21 0.22 0.21 0.24 0.39 0.38 0.44 0.45 0.59 0.68 0.67 0.80 0.92 1.04 1.13 1.14 1.17
0.62 0.65 0.66 0.65 0.65 0.65 0.65 0.65 0.65 0.65 0.65 0.64 0.63 0.61 0.58 0.57 0.55 0.55 0.54 0.54 0.53 0.52 0.52 0.50 0.49 0.48 0.47 0.48 0.48 0.48 0.40 0.28 0.28 0.23 0.32 0.38 0.31 0.27 0.26 0.29 0.35 0.40 0.33 0.26 0.26 0.21 0.18 0.20 0.21 0.22 0.23 0.20 0.23 0.21 0.22 0.20 0.20 0.19 0.15 0.11 0.11 0.14 0.15 0.16 0.18 0.18 0.21 0.23 0.20 0.21 0.21 0.21 0.21 0.22 0.24 0.31 0.36 0.46 0.36 0.43 0.56 0.56 0.63 0.78 0.95 1.08 1.12 1.13
0.59 0.62 0.64 0.66 0.66 0.66 0.66 0.66 0.66 0.66 0.66 0.66 0.65 0.64 0.62 0.58 0.57 0.55 0.54 0.54 0.53 0.53 0.51 0.49 0.48 0.47 0.48 0.47 0.48 0.46 0.36 0.30 0.25 0.34 0.44 0.46 0.39 0.30 0.28 0.32 0.35 0.38 0.37 0.28 0.29 0.23 0.21 0.22 0.22 0.22 0.21 0.19 0.21 0.23 0.19 0.20 0.16 0.18 0.15 0.12 0.13 0.15 0.14 0.15 0.17 0.18 0.20 0.23 0.21 0.21 0.21 0.20 0.20 0.22 0.27 0.33 0.30 0.39 0.45 0.51 0.43 0.54 0.61 0.76 0.91 0.98 1.04 1.06
0.56 0.59 0.62 0.64 0.65 0.66 0.67 0.67 0.67 0.67 0.66 0.66 0.66 0.65 0.65 0.61 0.58 0.56 0.55 0.53 0.53 0.52 0.49 0.48 0.47 0.47 0.47 0.47 0.45 0.42 0.29 0.19 0.33 0.44 0.48 0.52 0.50 0.34 0.28 0.32 0.38 0.40 0.37 0.30 0.28 0.25 0.21 0.20 0.22 0.21 0.21 0.16 0.20 0.19 0.19 0.20 0.20 0.17 0.15 0.16 0.15 0.16 0.14 0.16 0.17 0.19 0.20 0.22 0.21 0.20 0.19 0.18 0.20 0.20 0.25 0.26 0.25 0.24 0.36 0.49 0.63 0.62 0.66 0.71 0.82 0.95 1.01 1.02
0.51 0.54 0.57 0.61 0.63 0.65 0.66 0.67 0.66 0.68 0.68 0.66 0.66 0.66 0.65 0.63 0.60 0.58 0.55 0.54 0.53 0.52 0.49 0.48 0.47 0.45 0.46 0.45 0.43 0.37 0.26 0.11 0.45 0.51 0.61 0.54 0.55 0.44 0.32 0.31 0.39 0.41 0.36 0.28 0.25 0.23 0.20 0.20 0.21 0.18 0.18 0.17 0.17 0.16 0.18 0.20 0.21 0.15 0.16 0.16 0.16 0.16 0.14 0.16 0.17 0.18 0.20 0.20 0.20 0.19 0.19 0.20 0.19 0.18 0.26 0.24 0.22 0.23 0.46 0.61 0.68 0.68 0.75 0.83 0.90 0.92 0.95 0.99
0.49 0.50 0.53 0.56 0.59 0.62 0.65 0.66 0.67 0.67 0.68 0.68 0.67 0.67 0.63 0.61 0.60 0.58 0.56 0.54 0.54 0.53 0.51 0.48 0.46 0.47 0.44 0.45 0.44 0.33 0.23 0.23 0.40 0.52 0.55 0.61 0.56 0.48 0.40 0.36 0.40 0.36 0.33 0.26 0.22 0.19 0.19 0.20 0.20 0.18 0.18 0.17 0.18 0.18 0.19 0.19 0.21 0.17 0.15 0.17 0.16 0.16 0.15 0.17 0.17 0.17 0.18 0.19 0.19 0.21 0.21 0.18 0.18 0.17 0.28 0.29 0.36 0.41 0.54 0.69 0.72 0.79 0.87 0.91 0.84 0.91 0.93 0.99
0.48 0.49 0.48 0.51 0.54 0.58 0.62 0.64 0.66 0.66 0.68 0.68 0.67 0.65 0.64 0.63 0.62 0.60 0.58 0.54 0.53 0.53 0.52 0.49 0.48 0.45 0.45 0.39 0.28 0.22 0.24 0.23 0.39 0.52 0.58 0.58 0.54 0.46 0.43 0.41 0.37 0.34 0.28 0.23 0.20 0.18 0.19 0.20 0.19 0.23 0.19 0.16 0.18 0.17 0.19 0.18 0.19 0.16 0.15 0.16 0.16 0.17 0.17 0.17 0.17 0.17 0.17 0.18 0.20 0.20 0.18 0.18 0.18 0.19 0.31 0.32 0.44 0.49 0.56 0.68 0.76 0.81 0.86 0.89 0.87 0.89 0.97 1.00
0.45 0.46 0.47 0.47 0.49 0.52 0.57 0.61 0.64 0.64 0.67 0.68 0.67 0.66 0.64 0.64 0.62 0.62 0.60 0.56 0.53 0.52 0.51 0.50 0.46 0.47 0.47 0.38 0.26 0.18 0.17 0.39 0.43 0.50 0.53 0.48 0.47 0.42 0.36 0.33 0.37 0.28 0.23 0.22 0.21 0.20 0.21 0.21 0.22 0.24 0.18 0.18 0.22 0.18 0.20 0.17 0.15 0.16 0.15 0.17 0.17 0.16 0.16 0.16 0.16 0.16 0.16 0.17 0.18 0.17 0.17 0.18 0.18 0.32 0.32 0.49 0.55 0.64 0.64 0.67 0.72 0.80 0.82 0.83 0.87 0.94 0.97 1.00
0.43 0.44 0.45 0.47 0.47 0.48 0.51 0.56 0.60 0.62 0.65 0.67 0.67 0.66 0.64 0.64 0.62 0.61 0.62 0.61 0.55 0.53 0.52 0.50 0.49 0.45 0.38 0.32 0.28 0.13 0.32 0.50 0.53 0.52 0.49 0.46 0.42 0.35 0.30 0.31 0.31 0.26 0.20 0.19 0.20 0.19 0.20 0.23 0.24 0.28 0.27 0.22 0.23 0.18 0.19 0.16 0.15 0.16 0.16 0.16 0.16 0.16 0.16 0.17 0.15 0.15 0.16 0.16 0.17 0.16 0.17 0.17 0.20 0.24 0.28 0.59 0.67 0.69 0.64 0.63 0.73 0.77 0.76 0.82 0.88 0.95 1.03 1.03
0.42 0.43 0.44 0.46 0.46 0.47 0.47 0.50 0.55 0.59 0.62 0.64 0.65 0.64 0.64 0.63 0.62 0.61 0.62 0.63 0.58 0.54 0.51 0.49 0.50 0.43 0.32 0.34 0.18 0.15 0.44 0.48 0.51 0.47 0.43 0.40 0.33 0.26 0.23 0.26 0.29 0.22 0.20 0.19 0.18 0.22 0.26 0.30 0.34 0.33 0.28 0.23 0.22 0.19 0.18 0.17 0.18 0.18 0.18 0.18 0.18 0.17 0.18 0.17 0.16 0.16 0.16 0.16 0.17 0.17 0.16 0.17 0.17 0.20 0.25 0.46 0.64 0.68 0.58 0.66 0.74 0.77 0.77 0.83 0.90 0.97 1.04 1.04
0.42 0.42 0.42 0.43 0.45 0.46 0.46 0.47 0.50 0.55 0.58 0.61 0.63 0.63 0.63 0.63 0.62 0.61 0.62 0.64 0.61 0.57 0.51 0.49 0.49 0.45 0.37 0.29 0.22 0.24 0.48 0.52 0.49 0.42 0.38 0.34 0.25 0.24 0.26 0.27 0.25 0.22 0.20 0.17 0.21 0.26 0.30 0.34 0.34 0.30 0.21 0.27 0.19 0.21 0.18 0.21 0.19 0.19 0.19 0.15 0.16 0.16 0.15 0.16 0.15 0.16 0.16 0.16 0.17 0.17 0.15 0.14 0.15 0.14 0.35 0.50 0.62 0.65 0.63 0.67 0.74 0.76 0.79 0.83 0.91 0.98 0.99 1.01
0.41 0.41 0.41 0.42 0.43 0.45 0.45 0.46 0.47 0.49 0.53 0.56 0.60 0.61 0.62 0.63 0.62 0.62 0.62 0.63 0.62 0.60 0.57 0.53 0.48 0.43 0.32 0.17 0.22 0.37 0.42 0.47 0.46 0.39 0.35 0.32 0.26 0.28 0.28 0.27 0.25 0.23 0.21 0.22 0.26 0.31 0.33 0.35 0.34 0.27 0.30 0.26 0.22 0.17 0.21 0.22 0.20 0.20 0.19 0.17 0.16 0.15 0.14 0.15 0.16 0.16 0.16 0.16 0.17 0.17 0.11 0.12 0.14 0.22 0.45 0.58 0.60 0.65 0.65 0.68 0.73 0.75 0.79 0.85 0.91 0.94 0.95 1.01
0.41 0.41 0.41 0.42 0.43 0.43 0.44 0.45 0.45 0.46 0.49 0.53 0.56 0.58 0.59 0.60 0.60 0.60 0.63 0.64 0.65 0.61 0.59 0.58 0.50 0.39 0.33 0.20 0.29 0.43 0.44 0.44 0.44 0.38 0.29 0.30 0.22 0.20 0.24 0.25 0.24 0.23 0.25 0.28 0.30 0.34 0.34 0.37 0.34 0.31 0.31 0.24 0.20 0.25 0.21 0.20 0.21 0.16 0.19 0.19 0.15 0.13 0.11 0.15 0.15 0.16 0.14 0.17 0.17 0.17 0.11 0.12 0.17 0.30 0.48 0.56 0.59 0.55 0.53 0.65 0.68 0.74 0.80 0.85 0.90 0.90 0.89 0.98
0.41 0.41 0.40 0.41 0.42 0.44 0.46 0.46 0.46 0.46 0.47 0.49 0.51 0.53 0.54 0.55 0.57 0.60 0.63 0.64 0.64 0.59 0.60 0.61 0.55 0.39 0.26 0.24 0.39 0.48 0.52 0.55 0.39 0.36 0.32 0.25 0.21 0.18 0.20 0.23 0.23 0.26 0.29 0.31 0.31 0.34 0.36 0.35 0.32 0.26 0.21 0.24 0.23 0.19 0.17 0.17 0.18 0.18 0.15 0.14 0.15 0.12 0.12 0.15 0.17 0.16 0.13 0.15 0.16 0.15 0.11 0.11 0.20 0.35 0.48 0.57 0.60 0.56 0.51 0.61 0.67 0.70 0.78 0.82 0.84 0.84 0.89 0.92
0.41 0.41 0.40 0.40 0.42 0.44 0.46 0.46 0.46 0.46 0.45 0.45 0.46 0.49 0.52 0.53 0.56 0.60 0.62 0.63 0.64 0.61 0.62 0.50 0.46 0.37 0.25 0.17 0.30 0.56 0.48 0.34 0.34 0.39 0.34 0.27 0.24 0.23 0.25 0.29 0.31 0.31 0.32 0.31 0.34 0.35 0.34 0.33 0.26 0.24 0.22 0.21 0.18 0.17 0.16 0.15 0.16 0.18 0.15 0.14 0.13 0.14 0.14 0.15 0.17 0.18 0.17 0.16 0.16 0.14 0.11 0.14 0.19 0.38 0.47 0.58 0.60 0.61 0.56 0.62 0.66 0.72 0.78 0.80 0.80 0.83 0.86 0.88
0.40 0.40 0.40 0.39 0.40 0.43 0.46 0.45 0.46 0.46 0.45 0.45 0.45 0.47 0.50 0.54 0.56 0.58 0.62 0.64 0.61 0.63 0.58 0.41 0.48 0.43 0.19 0.41 0.52 0.38 0.37 0.37 0.37 0.36 0.32 0.28 0.26 0.27 0.28 0.28 0.28 0.29 0.32 0.33 0.34 0.32 0.32 0.27 0.25 0.22 0.22 0.18 0.18 0.17 0.14 0.13 0.13 0.15 0.17 0.14 0.16 0.15 0.19 0.17 0.22 0.23 0.21 0.19 0.15 0.16 0.13 0.13 0.18 0.35 0.52 0.61 0.63 0.62 0.59 0.61 0.68 0.75 0.79 0.80 0.82 0.83 0.82 0.83
0.39 0.39 0.39 0.39 0.38 0.40 0.45 0.46 0.46 0.46 0.45 0.46 0.47 0.49 0.52 0.60 0.69 0.73 0.75 0.74 0.73 0.65 0.58 0.61 0.51 0.31 0.21 0.33 0.28 0.35 0.42 0.36 0.34 0.32 0.30 0.28 0.28 0.26 0.28 0.25 0.28 0.29 0.29 0.26 0.28 0.23 0.25 0.20 0.22 0.17 0.18 0.17 0.16 0.16 0.12 0.10 0.12 0.13 0.15 0.15 0.17 0.22 0.23 0.20 0.18 0.22 0.21 0.19 0.18 0.18 0.15 0.15 0.19 0.31 0.46 0.57 0.70 0.67 0.62 0.64 0.71 0.72 0.74 0.78 0.79 0.79 0.80 0.79
0.38 0.38 0.38 0.38 0.38 0.39 0.43 0.46 0.47 0.48 0.48 0.51 0.56 0.63 0.69 0.73 0.79 0.80 0.68 0.64 0.48 0.38 0.25 0.25 0.25 0.13 0.18 0.30 0.40 0.38 0.41 0.39 0.35 0.31 0.26 0.27 0.29 0.29 0.29 0.30 0.27 0.25 0.20 0.20 0.20 0.20 0.22 0.19 0.20 0.16 0.13 0.14 0.14 0.14 0.14 0.15 0.17 0.16 0.17 0.18 0.20 0.19 0.21 0.20 0.22 0.25 0.23 0.19 0.18 0.18 0.16 0.16 0.23 0.31 0.48 0.63 0.70 0.66 0.65 0.70 0.65 0.67 0.73 0.78 0.79 0.79 0.78 0.76
0.38 0.38 0.38 0.38 0.38 0.38 0.40 0.45 0.48 0.50 0.53 0.53 0.57 0.61 0.64 0.54 0.51 0.50 0.62 0.60 0.44 0.36 0.35 0.35 0.33 0.27 0.32 0.35 0.34 0.41 0.47 0.43 0.27 0.27 0.28 0.31 0.29 0.28 0.26 0.26 0.23 0.23 0.19 0.16 0.19 0.18 0.21 0.15 0.14 0.13 0.13 0.14 0.16 0.17 0.18 0.20 0.20 0.20 0.20 0.21 0.20 0.21 0.21 0.23 0.23 0.24 0.26 0.20 0.18 0.19 0.19 0.19 0.26 0.31 0.44 0.60 0.69 0.70 0.71 0.67 0.61 0.62 0.66 0.73 0.76 0.75 0.75 0.75
0.39 0.38 0.38 0.38 0.37 0.38 0.38 0.41 0.46 0.49 0.54 0.54 0.56 0.49 0.36 0.36 0.29 0.29 0.40 0.41 0.42 0.44 0.39 0.37 0.36 0.30 0.33 0.38 0.42 0.42 0.36 0.35 0.33 0.25 0.27 0.34 0.30 0.26 0.22 0.22 0.19 0.17 0.18 0.19 0.18 0.27 0.21 0.15 0.14 0.15 0.15 0.17 0.18 0.21 0.22 0.22 0.22 0.21 0.20 0.21 0.22 0.23 0.20 0.22 0.22 0.24 0.26 0.20 0.19 0.21 0.19 0.20 0.24 0.34 0.45 0.60 0.65 0.60 0.62 0.62 0.58 0.57 0.64 0.70 0.73 0.72 0.72 0.77
0.39 0.40 0.39 0.37 0.37 0.37 0.38 0.40 0.44 0.48 0.53 0.56 0.53 0.44 0.42 0.42 0.45 0.49 0.42 0.26 0.36 0.43 0.44 0.39 0.41 0.32 0.41 0.42 0.46 0.48 0.44 0.34 0.30 0.30 0.31 0.30 0.27 0.20 0.21 0.20 0.18 0.15 0.19 0.20 0.20 0.18 0.16 0.13 0.15 0.18 0.21 0.22 0.23 0.23 0.25 0.23 0.23 0.25 0.23 0.23 0.22 0.22 0.23 0.23 0.24 0.26 0.26 0.21 0.18 0.21 0.19 0.21 0.27 0.35 0.48 0.55 0.56 0.58 0.63 0.58 0.53 0.56 0.63 0.66 0.69 0.70 0.72 0.75
0.38 0.39 0.39 0.39 0.37 0.37 0.37 0.39 0.42 0.46 0.46 0.47 0.43 0.44 0.44 0.52 0.59 0.59 0.51 0.39 0.29 0.40 0.39 0.37 0.32 0.31 0.35 0.43 0.46 0.48 0.36 0.31 0.27 0.28 0.29 0.27 0.25 0.22 0.22 0.19 0.18 0.20 0.20 0.20 0.16 0.15 0.13 0.14 0.18 0.22 0.24 0.23 0.23 0.25 0.26 0.27 0.27 0.25 0.24 0.23 0.21 0.23 0.20 0.19 0.22 0.25 0.26 0.23 0.19 0.21 0.19 0.22 0.27 0.35 0.49 0.56 0.52 0.55 0.59 0.62 0.62 0.64 0.61 0.59 0.61 0.66 0.66 0.69
0.37 0.38 0.40 0.40 0.40 0.37 0.36 0.36 0.39 0.36 0.37 0.42 0.47 0.46 0.55 0.61 0.61 0.60 0.48 0.32 0.24 0.27 0.31 0.33 0.33 0.31 0.33 0.33 0.43 0.40 0.35 0.34 0.33 0.26 0.33 0.26 0.21 0.24 0.21 0.20 0.20 0.20 0.18 0.20 0.19 0.17 0.16 0.20 0.26 0.26 0.26 0.24 0.23 0.24 0.25 0.24 0.23 0.25 0.23 0.23 0.22 0.21 0.21 0.21 0.22 0.25 0.27 0.28 0.26 0.23 0.21 0.21 0.24 0.25 0.35 0.46 0.55 0.54 0.56 0.62 0.66 0.69 0.71 0.71 0.73 0.71 0.69 0.65
0.36 0.37 0.38 0.39 0.39 0.40 0.34 0.36 0.28 0.31 0.40 0.44 0.48 0.50 0.58 0.60 0.62 0.63 0.45 0.34 0.30 0.26 0.43 0.35 0.38 0.31 0.36 0.49 0.49 0.37 0.38 0.38 0.34 0.35 0.33 0.28 0.23 0.22 0.20 0.23 0.21 0.18 0.20 0.22 0.21 0.21 0.21 0.25 0.27 0.25 0.25 0.26 0.24 0.23 0.23 0.24 0.22 0.23 0.25 0.25 0.23 0.22 0.23 0.25 0.26 0.24 0.22 0.21 0.25 0.24 0.18 0.19 0.24 0.26 0.28 0.36 0.46 0.48 0.55 0.56 0.57 0.62 0.65 0.66 0.62 0.63 0.69 0.75
0.36 0.37 0.37 0.38 0.38 0.37 0.36 0.25 0.34 0.40 0.36 0.38 0.39 0.46 0.59 0.62 0.66 0.62 0.46 0.28 0.17 0.25 0.34 0.21 0.37 0.23 0.43 0.35 0.41 0.39 0.40 0.29 0.36 0.36 0.35 0.31 0.30 0.24 0.23 0.21 0.22 0.19 0.22 0.22 0.22 0.22 0.22 0.25 0.25 0.23 0.23 0.24 0.24 0.24 0.26 0.25 0.21 0.20 0.22 0.28 0.26 0.25 0.25 0.25 0.25 0.23 0.19 0.19 0.26 0.28 0.19 0.18 0.25 0.25 0.26 0.30 0.34 0.38 0.49 0.50 0.54 0.59 0.61 0.62 0.61 0.62 0.65 0.69
0.37 0.36 0.36 0.37 0.37 0.38 0.22 0.19 0.32 0.31 0.29 0.30 0.46 0.52 0.62 0.64 0.71 0.62 0.36 0.25 0.17 0.38 0.26 0.31 0.27 0.30 0.35 0.39 0.38 0.40 0.22 0.24 0.36 0.39 0.36 0.36 0.29 0.31 0.22 0.20 0.22 0.25 0.25 0.25 0.22 0.19 0.23 0.25 0.26 0.26 0.24 0.23 0.23 0.21 0.25 0.25 0.22 0.19 0.25 0.26 0.24 0.23 0.25 0.26 0.25 0.23 0.23 0.27 0.29 0.29 0.24 0.20 0.20 0.25 0.28 0.31 0.31 0.34 0.38 0.44 0.51 0.54 0.57 0.57 0.60 0.63 0.66 0.69
0.37 0.37 0.37 0.37 0.36 0.37 0.28 0.29 0.27 0.24 0.34 0.48 0.55 0.51 0.57 0.59 0.57 0.58 0.35 0.14 0.10 0.44 0.36 0.37 0.31 0.45 0.37 0.41 0.43 0.32 0.31 0.35 0.27 0.32 0.38 0.39 0.35 0.31 0.26 0.23 0.20 0.22 0.23 0.22 0.15 0.22 0.23 0.23 0.24 0.23 0.24 0.22 0.21 0.24 0.28 0.28 0.23 0.22 0.24 0.25 0.23 0.23 0.25 0.26 0.25 0.24 0.25 0.23 0.21 0.25 0.29 0.21 0.21 0.25 0.29 0.29 0.26 0.30 0.33 0.37 0.44 0.49 0.53 0.55 0.57 0.62 0.67 0.71
0.35 0.36 0.37 0.37 0.36 0.35 0.36 0.31 0.29 0.29 0.52 0.56 0.50 0.50 0.54 0.56 0.44 0.36 0.27 0.13 0.37 0.35 0.50 0.39 0.53 0.44 0.38 0.41 0.39 0.37 0.35 0.37 0.29 0.35 0.38 0.41 0.39 0.35 0.27 0.27 0.25 0.24 0.25 0.24 0.19 0.22 0.25 0.25 0.26 0.26 0.24 0.23 0.26 0.29 0.30 0.28 0.23 0.25 0.27 0.27 0.26 0.26 0.27 0.28 0.26 0.25 0.24 0.21 0.19 0.23 0.27 0.20 0.21 0.25 0.26 0.28 0.26 0.26 0.29 0.35 0.40 0.44 0.48 0.51 0.54 0.60 0.68 0.73
0.35 0.35 0.36 0.37 0.34 0.31 0.31 0.37 0.28 0.32 0.51 0.52 0.49 0.52 0.53 0.47 0.35 0.18 0.20 0.12 0.37 0.25 0.35 0.40 0.43 0.39 0.40 0.34 0.33 0.36 0.33 0.37 0.38 0.38 0.38 0.36 0.38 0.37 0.35 0.36 0.30 0.28 0.26 0.27 0.24 0.25 0.27 0.30 0.31 0.27 0.24 0.26 0.29 0.30 0.30 0.27 0.25 0.29 0.26 0.23 0.23 0.24 0.26 0.28 0.27 0.25 0.23 0.19 0.21 0.24 0.27 0.24 0.20 0.24 0.25 0.24 0.25 0.27 0.29 0.31 0.35 0.43 0.48 0.53 0.57 0.60 0.65 0.71
0.34 0.34 0.34 0.37 0.26 0.29 0.30 0.19 0.21 0.48 0.54 0.49 0.51 0.51 0.42 0.35 0.19 0.14 0.11 0.12 0.29 0.33 0.37 0.35 0.34 0.40 0.34 0.30 0.29 0.34 0.33 0.36 0.36 0.37 0.34 0.37 0.35 0.36 0.34 0.31 0.34 0.28 0.27 0.26 0.24 0.26 0.27 0.28 0.27 0.29 0.30 0.30 0.31 0.28 0.29 0.30 0.28 0.25 0.22 0.20 0.20 0.21 0.24 0.25 0.25 0.25 0.19 0.18 0.23 0.27 0.26 0.27 0.18 0.23 0.26 0.28 0.29 0.29 0.29 0.29 0.31 0.35 0.41 0.48 0.55 0.59 0.64 0.71
0.34 0.33 0.34 0.33 0.31 0.34 0.20 0.16 0.39 0.51 0.49 0.44 0.50 0.35 0.26 0.16 0.25 0.13 0.11 0.41 0.21 0.30 0.30 0.34 0.36 0.34 0.34 0.34 0.31 0.31 0.30 0.33 0.35 0.34 0.33 0.33 0.32 0.31 0.31 0.27 0.28 0.22 0.21 0.22 0.20 0.26 0.23 0.24 0.28 0.28 0.32 0.29 0.28 0.25 0.26 0.26 0.25 0.23 0.22 0.21 0.17 0.16 0.17 0.16 0.20 0.18 0.18 0.18 0.25 0.29 0.28 0.24 0.22 0.24 0.28 0.29 0.29 0.30 0.32 0.32 0.32 0.34 0.37 0.45 0.53 0.59 0.64 0.72
0.34 0.33 0.33 0.31 0.33 0.28 0.25 0.23 0.27 0.38 0.39 0.44 0.46 0.31 0.18 0.13 0.11 0.16 0.16 0.25 0.22 0.37 0.34 0.40 0.37 0.36 0.35 0.32 0.31 0.32 0.34 0.29 0.34 0.33 0.34 0.34 0.32 0.32 0.35 0.32 0.32 0.28 0.21 0.25 0.23 0.22 0.22 0.26 0.27 0.28 0.28 0.29 0.28 0.23 0.22 0.21 0.22 0.21 0.19 0.19 0.17 0.14 0.13 0.13 0.17 0.19 0.20 0.23 0.28 0.27 0.30 0.22 0.26 0.29 0.32 0.30 0.31 0.32 0.33 0.34 0.35 0.36 0.38 0.43 0.52 0.60 0.65 0.71
0.34 0.33 0.28 0.27 0.28 0.26 0.24 0.28 0.29 0.38 0.36 0.42 0.40 0.24 0.21 0.12 0.10 0.26 0.17 0.18 0.22 0.37 0.38 0.35 0.35 0.35 0.33 0.31 0.33 0.34 0.30 0.33 0.33 0.32 0.33 0.31 0.31 0.29 0.31 0.33 0.33 0.30 0.27 0.27 0.22 0.22 0.18 0.19 0.23 0.25 0.23 0.29 0.27 0.25 0.24 0.23 0.22 0.22 0.23 0.21 0.19 0.17 0.14 0.12 0.14 0.14 0.16 0.19 0.24 0.31 0.23 0.20 0.20 0.24 0.33 0.34 0.35 0.36 0.39 0.40 0.41 0.44 0.47 0.50 0.55 0.60 0.67 0.70
0.34 0.31 0.29 0.27 0.28 0.27 0.26 0.27 0.28 0.33 0.30 0.41 0.34 0.20 0.12 0.12 0.16 0.16 0.17 0.19 0.22 0.29 0.29 0.35 0.33 0.32 0.30 0.33 0.36 0.36 0.34 0.31 0.35 0.34 0.32 0.30 0.28 0.28 0.29 0.29 0.32 0.32 0.30 0.23 0.24 0.23 0.21 0.21 0.28 0.30 0.29 0.30 0.26 0.27 0.27 0.25 0.22 0.22 0.23 0.23 0.19 0.17 0.20 0.14 0.17 0.16 0.17 0.19 0.20 0.23 0.21 0.27 0.25 0.34 0.36 0.38 0.41 0.43 0.45 0.45 0.46 0.46 0.52 0.55 0.57 0.60 0.64 0.69
0.31 0.27 0.30 0.22 0.22 0.21 0.25 0.27 0.28 0.28 0.24 0.33 0.24 0.17 0.13 0.14 0.13 0.20 0.16 0.25 0.25 0.23 0.27 0.29 0.32 0.29 0.29 0.30 0.36 0.34 0.38 0.33 0.34 0.33 0.32 0.30 0.30 0.28 0.31 0.32 0.31 0.32 0.28 0.23 0.24 0.19 0.21 0.20 0.26 0.28 0.29 0.28 0.27 0.28 0.27 0.26 0.18 0.22 0.21 0.18 0.19 0.24 0.21 0.19 0.20 0.22 0.20 0.18 0.16 0.24 0.21 0.24 0.32 0.33 0.35 0.38 0.39 0.42 0.47 0.50 0.49 0.50 0.54 0.57 0.57 0.62 0.67 0.74
0.27 0.30 0.21 0.24 0.29 0.33 0.28 0.27 0.26 0.22 0.24 0.25 0.17 0.13 0.17 0.17 0.19 0.25 0.29 0.26 0.27 0.26 0.24 0.23 0.26 0.25 0.28 0.29 0.32 0.33 0.35 0.35 0.34 0.32 0.29 0.32 0.30 0.32 0.31 0.32 0.33 0.32 0.31 0.28 0.24 0.26 0.20 0.20 0.25 0.26 0.25 0.29 0.30 0.28 0.28 0.26 0.25 0.22 0.18 0.21 0.28 0.30 0.26 0.20 0.16 0.19 0.17 0.14 0.17 0.20 0.18 0.20 0.22 0.21 0.33 0.35 0.36 0.40 0.44 0.47 0.53 0.55 0.59 0.58 0.63 0.66 0.71 0.73
0.28 0.30 0.29 0.35 0.40 0.44 0.35 0.28 0.24 0.22 0.22 0.19 0.13 0.13 0.24 0.15 0.22 0.19 0.25 0.26 0.27 0.26 0.23 0.25 0.27 0.28 0.26 0.29 0.31 0.34 0.37 0.32 0.33 0.32 0.30 0.32 0.29 0.38 0.32 0.31 0.33 0.32 0.32 0.33 0.25 0.26 0.24 0.19 0.24 0.27 0.27 0.29 0.30 0.28 0.26 0.27 0.27 0.23 0.21 0.30 0.22 0.19 0.17 0.22 0.19 0.15 0.15 0.15 0.16 0.20 0.22 0.23 0.24 0.24 0.30 0.31 0.33 0.36 0.42 0.48 0.51 0.52 0.58 0.60 0.61 0.66 0.73 0.74
0.31 0.28 0.23 0.39 0.51 0.45 0.35 0.30 0.23 0.18 0.20 0.15 0.14 0.12 0.19 0.20 0.25 0.24 0.27 0.26 0.25 0.24 0.22 0.28 0.26 0.26 0.26 0.26 0.31 0.34 0.34 0.30 0.33 0.31 0.29 0.31 0.27 0.37 0.33 0.32 0.30 0.33 0.32 0.32 0.28 0.28 0.27 0.20 0.21 0.28 0.27 0.28 0.28 0.27 0.21 0.24 0.26 0.25 0.25 0.23 0.26 0.23 0.22 0.20 0.20 0.21 0.19 0.17 0.16 0.17 0.21 0.20 0.28 0.29 0.31 0.31 0.34 0.38 0.44 0.47 0.50 0.55 0.59 0.60 0.61 0.65 0.65 0.66
0.23 0.19 0.21 0.51 0.61 0.44 0.37 0.31 0.21 0.18 0.15 0.09 0.12 0.13 0.25 0.17 0.20 0.23 0.23 0.23 0.22 0.23 0.26 0.28 0.29 0.25 0.25 0.25 0.29 0.27 0.32 0.33 0.33 0.32 0.30 0.31 0.30 0.39 0.35 0.34 0.31 0.31 0.32 0.32 0.30 0.32 0.26 0.27 0.20 0.25 0.29 0.28 0.24 0.26 0.23 0.24 0.22 0.22 0.21 0.20 0.21 0.22 0.28 0.24 0.25 0.21 0.19 0.17 0.18 0.17 0.17 0.22 0.29 0.35 0.34 0.35 0.37 0.40 0.44 0.44 0.49 0.53 0.57 0.60 0.62 0.62 0.63 0.66
0.30 0.20 0.32 0.59 0.61 0.49 0.42 0.29 0.16 0.14 0.13 0.20 0.20 0.17 0.19 0.16 0.20 0.22 0.22 0.24 0.24 0.28 0.28 0.31 0.30 0.27 0.26 0.24 0.23 0.29 0.28 0.30 0.32 0.33 0.32 0.31 0.31 0.29 0.36 0.36 0.35 0.31 0.33 0.30 0.28 0.30 0.26 0.25 0.22 0.25 0.24 0.24 0.25 0.30 0.29 0.28 0.27 0.24 0.22 0.21 0.22 0.20 0.18 0.16 0.16 0.24 0.22 0.18 0.17 0.16 0.16 0.23 0.32 0.38 0.38 0.38 0.40 0.42 0.46 0.47 0.48 0.53 0.56 0.58 0.59 0.61 0.62 0.64
0.24 0.14 0.30 0.62 0.63 0.57 0.37 0.16 0.19 0.24 0.19 0.15 0.14 0.17 0.15 0.22 0.19 0.19 0.21 0.25 0.25 0.25 0.32 0.33 0.32 0.29 0.27 0.25 0.24 0.26 0.27 0.27 0.30 0.32 0.35 0.33 0.33 0.32 0.36 0.40 0.39 0.38 0.32 0.29 0.29 0.32 0.29 0.28 0.25 0.23 0.25 0.25 0.27 0.29 0.31 0.30 0.30 0.27 0.26 0.23 0.25 0.25 0.23 0.19 0.15 0.19 0.22 0.21 0.22 0.21 0.17 0.20 0.33 0.38 0.40 0.40 0.42 0.43 0.47 0.50 0.50 0.53 0.55 0.57 0.59 0.59 0.62 0.63
0.24 0.22 0.49 0.62 0.66 0.59 0.37 0.19 0.25 0.21 0.17 0.21 0.25 0.23 0.27 0.27 0.23 0.24 0.21 0.26 0.24 0.26 0.29 0.28 0.28 0.26 0.27 0.26 0.25 0.24 0.28 0.27 0.30 0.31 0.35 0.36 0.37 0.37 0.39 0.39 0.40 0.38 0.36 0.33 0.33 0.34 0.36 0.25 0.23 0.23 0.26 0.28 0.29 0.30 0.29 0.29 0.27 0.25 0.26 0.27 0.25 0.23 0.24 0.22 0.20 0.22 0.20 0.22 0.19 0.19 0.16 0.20 0.31 0.36 0.38 0.40 0.44 0.47 0.51 0.54 0.52 0.54 0.57 0.58 0.59 0.59 0.61 0.61
0.27 0.30 0.41 0.59 0.66 0.66 0.42 0.25 0.21 0.21 0.22 0.29 0.33 0.32 0.37 0.32 0.28 0.25 0.23 0.29 0.24 0.23 0.27 0.28 0.28 0.30 0.28 0.30 0.28 0.25 0.28 0.24 0.29 0.30 0.32 0.38 0.37 0.44 0.44 0.40 0.40 0.36 0.35 0.32 0.30 0.35 0.26 0.27 0.24 0.21 0.21 0.22 0.24 0.26 0.26 0.27 0.26 0.24 0.24 0.25 0.26 0.26 0.26 0.26 0.25 0.26 0.20 0.22 0.22 0.19 0.15 0.19 0.29 0.36 0.40 0.41 0.43 0.45 0.49 0.55 0.57 0.56 0.59 0.60 0.60 0.61 0.63 0.65
0.30 0.38 0.41 0.53 0.62 0.58 0.41 0.40 0.37 0.33 0.32 0.35 0.35 0.30 0.30 0.29 0.30 0.28 0.28 0.27 0.29 0.29 0.28 0.28 0.31 0.32 0.29 0.32 0.29 0.29 0.29 0.26 0.24 0.31 0.33 0.37 0.39 0.45 0.45 0.43 0.41 0.38 0.39 0.39 0.36 0.37 0.29 0.29 0.26 0.20 0.18 0.16 0.16 0.17 0.19 0.22 0.23 0.24 0.25 0.24 0.25 0.24 0.23 0.22 0.19 0.21 0.18 0.22 0.23 0.20 0.19 0.25 0.32 0.37 0.40 0.42 0.43 0.45 0.51 0.53 0.57 0.59 0.58 0.57 0.56 0.57 0.58 0.58
0.25 0.19 0.33 0.44 0.52 0.52 0.49 0.54 0.46 0.42 0.38 0.35 0.31 0.32 0.30 0.27 0.30 0.32 0.31 0.29 0.32 0.31 0.32 0.32 0.33 0.34 0.31 0.29 0.26 0.27 0.28 0.31 0.27 0.28 0.30 0.32 0.36 0.41 0.44 0.44 0.41 0.40 0.40 0.40 0.39 0.36 0.30 0.32 0.29 0.26 0.23 0.21 0.22 0.23 0.27 0.29 0.27 0.23 0.23 0.23 0.23 0.25 0.25 0.24 0.22 0.20 0.19 0.22 0.21 0.23 0.23 0.24 0.28 0.33 0.35 0.38 0.40 0.41 0.43 0.48 0.50 0.52 0.55 0.57 0.58 0.58 0.58 0.58
0.30 0.23 0.29 0.32 0.48 0.50 0.48 0.48 0.45 0.44 0.38 0.41 0.31 0.33 0.29 0.29 0.30 0.30 0.35 0.28 0.33 0.32 0.32 0.32 0.32 0.29 0.29 0.29 0.27 0.26 0.29 0.28 0.30 0.29 0.30 0.31 0.35 0.38 0.42 0.44 0.43 0.45 0.44 0.42 0.43 0.39 0.33 0.29 0.30 0.28 0.27 0.26 0.27 0.26 0.27 0.27 0.25 0.26 0.24 0.23 0.23 0.23 0.23 0.22 0.20 0.19 0.24 0.21 0.19 0.25 0.26 0.23 0.26 0.30 0.33 0.35 0.37 0.39 0.42 0.46 0.50 0.52 0.54 0.54 0.56 0.58 0.59 0.60
0.20 0.28 0.36 0.43 0.40 0.39 0.42 0.43 0.48 0.45 0.43 0.41 0.36 0.37 0.32 0.28 0.28 0.26 0.32 0.34 0.36 0.36 0.30 0.31 0.31 0.32 0.32 0.29 0.29 0.25 0.28 0.27 0.28 0.26 0.31 0.32 0.33 0.35 0.34 0.37 0.37 0.38 0.39 0.38 0.40 0.36 0.31 0.27 0.30 0.29 0.29 0.30 0.30 0.28 0.28 0.27 0.27 0.27 0.26 0.25 0.23 0.24 0.22 0.20 0.21 0.23 0.23 0.20 0.20 0.26 0.27 0.24 0.27 0.30 0.34 0.36 0.38 0.39 0.42 0.45 0.48 0.50 0.51 0.52 0.53 0.54 0.55 0.57
0.28 0.29 0.33 0.43 0.37 0.43 0.46 0.46 0.46 0.43 0.40 0.41 0.38 0.37 0.33 0.30 0.28 0.30 0.31 0.31 0.32 0.33 0.34 0.28 0.29 0.32 0.32 0.33 0.30 0.26 0.28 0.24 0.25 0.29 0.29 0.30 0.31 0.31 0.29 0.31 0.34 0.36 0.34 0.33 0.35 0.37 0.34 0.31 0.32 0.32 0.29 0.29 0.30 0.30 0.30 0.28 0.28 0.28 0.26 0.25 0.25 0.23 0.23 0.23 0.22 0.22 0.22 0.22 0.27 0.29 0.29 0.29 0.33 0.35 0.37 0.39 0.42 0.44 0.45 0.48 0.49 0.47 0.47 0.47 0.48 0.48 0.49 0.51
0.24 0.27 0.24 0.36 0.37 0.38 0.43 0.45 0.45 0.43 0.37 0.40 0.35 0.36 0.35 0.33 0.30 0.32 0.33 0.32 0.29 0.31 0.37 0.30 0.32 0.33 0.33 0.32 0.30 0.27 0.29 0.30 0.31 0.28 0.32 0.31 0.30 0.31 0.29 0.29 0.29 0.32 0.33 0.29 0.30 0.31 0.28 0.28 0.32 0.31 0.28 0.28 0.30 0.31 0.31 0.31 0.30 0.27 0.29 0.28 0.26 0.25 0.23 0.23 0.23 0.24 0.24 0.25 0.28 0.29 0.28 0.29 0.37 0.40 0.40 0.42 0.44 0.45 0.45 0.45 0.46 0.47 0.48 0.47 0.46 0.47 0.48 0.50
0.37 0.37 0.36 0.28 0.24 0.32 0.37 0.41 0.41 0.41 0.39 0.39 0.35 0.36 0.36 0.36 0.34 0.35 0.34 0.36 0.32 0.31 0.33 0.32 0.34 0.34 0.34 0.32 0.31 0.30 0.32 0.33 0.34 0.34 0.35 0.34 0.30 0.34 0.30 0.30 0.32 0.28 0.30 0.30 0.29 0.28 0.27 0.25 0.29 0.26 0.22 0.23 0.27 0.27 0.28 0.28 0.26 0.25 0.25 0.27 0.26 0.24 0.21 0.23 0.21 0.25 0.23 0.23 0.25 0.25 0.24 0.26 0.34 0.39 0.40 0.41 0.41 0.40 0.39 0.41 0.42 0.44 0.47 0.47 0.46 0.47 0.48 0.50
0.40 0.41 0.42 0.34 0.22 0.28 0.28 0.33 0.37 0.38 0.34 0.41 0.40 0.37 0.35 0.35 0.37 0.38 0.32 0.36 0.35 0.34 0.34 0.34 0.34 0.33 0.33 0.32 0.30 0.31 0.33 0.34 0.35 0.37 0.38 0.38 0.39 0.38 0.37 0.35 0.34 0.31 0.29 0.30 0.32 0.28 0.28 0.26 0.23 0.23 0.19 0.20 0.24 0.24 0.23 0.23 0.22 0.20 0.21 0.24 0.25 0.26 0.26 0.26 0.26 0.28 0.27 0.27 0.24 0.22 0.23 0.31 0.35 0.39 0.37 0.38 0.39 0.39 0.39 0.40 0.41 0.42 0.44 0.46 0.46 0.47 0.49 0.52
Wind_Speed
16 16 16 16 16 16 16 16 16 17 17 17 17 17 17 17 17 17 17 18 18 18 18 18 18 18 18 18 18 19 19 19 19 20 20 20 20 20 20 20 20 20 20 19 19 19 18 18 18 18 17 17 17 17 17 17 17 15 14 14 15 14 14 15 14 14 14 14 13 11 10 9 11 11 11 10 10 10 11 11 12 12 12 11 11 10 10 11
16 16 16 16 16 16 16 16 16 16 16 16 17 17 17 17 17 17 17 17 17 17 17 17 18 18 18 18 18 18 18 19 20 20 21 20 19 20 21 21 20 20 20 20 20 19 19 19 18 18 17 17 17 17 17 17 17 16 15 15 15 14 15 15 15 15 15 15 14 13 12 11 11 12 12 12 12 12 11 11 11 9 9 9 9 10 10 11
16 16 16 16 16 16 16 16 16 16 16 16 16 16 17 17 17 17 17 17 17 17 17 17 17 17 18 18 18 17 18 18 18 19 18 18 19 20 21 21 21 20 20 20 20 20 20 19 18 17 17 17 18 17 17 17 17 17 16 16 16 15 15 16 16 17 18 17 15 14 14 13 13 13 12 12 12 13 13 13 12 10 10 10 10 10 10 11
16 16 16 16 16 16 16 16 16 16 16 16 16 16 17 17 17 17 17 17 17 17 17 17 17 17 17 17 17 17 17 17 17 17 16 16 17 19 20 21 20 20 21 20 20 20 20 19 18 17 17 17 18 17 17 17 17 17 17 17 17 16 16 17 18 18 18 17 16 16 15 14 14 13 13 13 12 15 16 16 15 13 12 12 12 12 11 11
16 16 16 16 16 16 16 16 16 16 16 17 16 16 17 17 17 17 17 17 17 17 17 17 17 17 17 17 17 16 15 15 15 16 16 15 16 18 19 20 20 20 20 20 20 20 20 19 18 17 17 17 18 17 18 19 18 17 17 18 17 16 16 17 18 18 17 17 16 16 15 15 14 13 14 14 14 17 17 16 15 14 13 13 13 12 11 11
16 16 16 16 16 16 16 16 17 17 17 17 17 17 17 17 17 17 17 17 17 16 16 16 16 16 16 16 16 15 15 14 15 16 16 15 15 17 18 19 20 19 20 20 19 20 19 19 18 18 17 18 18 18 19 19 18 18 18 18 18 17 16 18 18 18 17 17 16 15 16 16 14 14 14 15 16 17 16 14 14 14 13 13 12 12 11 12
16 16 16 16 16 17 17 17 17 17 17 17 17 17 17 17 17 17 17 17 16 16 16 16 16 16 16 15 15 14 15 16 17 16 15 15 15 16 17 18 19 19 20 20 19 19 19 19 19 19 17 18 19 19 19 19 18 18 18 17 19 18 17 19 19 19 19 18 18 16 16 16 15 16 15 14 16 15 14 13 13 13 12 11 11 11 11 12
16 16 16 16 16 17 17 17 17 17 17 17 17 17 17 17 16 16 16 16 16 16 16 16 16 15 15 14 14 14 15 17 16 15 15 15 15 15 16 17 18 19 19 20 20 19 19 19 19 18 17 18 19 19 19 18 17 18 19 17 18 18 18 19 20 20 19 19 18 17 17 17 16 15 14 15 14 13 13 13 12 11 10 11 10 10 11 11
16 16 16 16 16 16 17 17 17 17 17 17 17 17 17 16 16 16 16 16 16 16 16 15 15 15 14 14 14 14 15 15 15 14 14 14 15 15 16 16 18 18 18 19 19 19 19 19 19 19 18 18 18 18 18 17 17 18 19 18 17 18 19 19 20 20 19 18 16 15 17 19 17 14 14 15 13 13 12 12 12 11 10 10 10 10 11 11
16 16 16 16 16 16 16 17 16 16 17 17 17 17 16 16 16 16 16 16 15 16 15 15 15 14 14 14 13 13 14 14 13 13 14 14 14 15 16 16 17 18 18 18 18 19 18 18 19 18 17 17 18 18 17 17 17 17 18 18 18 19 19 18 19 19 19 17 16 16 17 18 16 14 15 15 12 12 11 12 12 11 11 11 10 10 10 10
15 15 16 16 16 16 16 16 16 16 16 16 16 16 16 16 16 16 16 15 15 15 15 15 14 14 14 13 13 13 13 13 12 13 13 14 14 15 16 16 17 18 17 17 18 19 18 18 17 16 17 17 17 17 17 17 17 17 17 17 19 18 18 17 17 18 17 17 16 16 16 15 14 15 16 15 13 12 11 11 12 12 11 11 10 10 10 10
14 14 15 15 15 15 15 15 16 16 16 16 16 16 16 16 16 15 15 15 15 15 15 14 13 13 13 13 14 14 13 12 12 12 13 13 13 14 15 16 16 17 17 17 17 19 19 18 17 16 17 16 16 16 17 17 16 17 16 15 17 15 15 16 16 17 16 16 15 14 14 15 15 16 16 14 13 12 11 11 12 12 11 11 11 10 9 9
13 13 14 14 14 14 14 15 15 15 15 15 15 15 16 16 15 15 15 15 15 14 14 13 13 13 12 13 14 13 13 12 11 12 12 12 12 13 14 15 15 16 17 17 17 18 18 17 17 17 17 16 16 16 15 15 15 16 15 14 15 13 14 15 14 15 16 16 15 14 16 16 16 16 15 14 14 12 11 12 12 12 11 11 11 11 9 9
13 13 13 13 13 14 14 14 15 15 15 15 15 15 15 15 15 15 15 14 14 14 14 13 12 12 12 13 13 12 13 12 11 12 11 11 11 11 13 14 14 15 16 18 18 17 17 16 16 17 17 17 17 17 15 14 14 15 14 13 13 13 14 15 14 14 15 16 16 15 17 16 16 16 15 14 15 14 13 13 13 12 12 12 12 11 10 9
12 12 12 12 13 13 13 14 14 14 15 15 15 15 15 15 15 15 15 14 14 14 13 12 12 11 11 13 13 11 11 11 12 12 11 11 10 10 12 13 13 15 16 17 17 16 15 15 15 16 16 16 16 16 15 14 13 13 13 13 12 13 14 14 14 14 14 15 15 15 16 15 15 16 16 15 15 14 13 13 13 13 13 13 12 11 10 9
13 12 12 12 13 13 13 13 14 14 14 14 14 14 14 14 14 15 15 14 14 13 12 12 12 11 10 11 11 10 10 11 11 11 11 11 10 10 11 12 13 14 15 15 15 15 14 14 14 15 15 14 13 13 13 13 13 12 12 13 13 12 12 12 11 12 13 13 13 14 15 13 13 15 15 15 15 14 13 12 12 13 14 13 12 12 11 10
13 13 12 12 13 13 13 13 13 13 14 14 14 13 13 13 13 14 14 14 13 13 13 12 11 11 11 11 10 9 10 11 10 10 11 11 11 11 11 12 12 13 14 14 14 14 14 14 14 14 13 13 13 12 12 13 13 13 11 11 12 11 11 11 10 11 11 12 13 14 15 14 13 14 14 14 14 13 12 12 13 14 14 13 12 11 11 10
13 13 12 12 12 12 13 13 13 13 13 13 13 13 13 13 13 13 13 13 13 12 12 12 11 10 10 10 10 9 9 10 11 11 11 11 11 12 11 11 11 11 12 12 13 13 13 13 12 12 12 12 12 12 13 14 13 13 12 11 11 11 11 11 11 10 10 12 13 13 14 14 14 14 14 13 13 13 13 14 15 16 14 13 12 12 11 10
13 13 13 12 12 12 12 12 12 12 12 12 12 12 12 12 11 11 11 11 12 12 12 13 12 11 10 10 11 10 9 10 10 11 11 11 11 12 11 11 11 11 11 11 12 12 12 12 11 12 13 13 14 13 14 14 14 13 12 11 11 11 11 12 12 11 11 12 13 13 14 13 13 14 13 12 12 13 13 15 15 15 14 13 12 12 12 11
14 13 13 12 12 12 12 12 12 12 12 11 11 11 11 10 10 11 11 12 13 14 14 14 14 14 13 12 11 10 9 9 10 12 12 12 11 11 11 11 10 11 12 12 12 11 11 11 12 14 14 14 15 14 14 13 13 12 12 12 12 11 12 12 11 11 10 12 13 13 13 13 14 13 12 12 12 12 13 14 14 13 14 14 13 13 13 11
14 14 13 13 12 12 12 12 12 11 11 11 11 11 11 11 10 11 12 13 15 16 16 16 16 16 15 13 11 10 9 9 10 12 13 13 12 11 11 10 10 10 12 12 11 10 9 11 13 13 14 14 13 13 13 12 12 13 13 12 11 11 12 12 11 10 8 10 11 11 12 13 14 13 12 12 12 13 13 14 14 14 14 14 14 14 13 11
15 14 14 13 13 13 12 12 12 11 11 11 11 11 11 11 11 12 12 12 15 16 17 17 16 17 16 14 13 11 10 10 11 12 13 13 12 12 11 10 10 11 10 10 9 9 9 10 12 12 12 12 11 12 12 12 13 13 12 12 12 12 12 12 10 9 7 8 11 11 11 12 13 13 12 13 14 14 15 16 16 15 15 15 16 15 13 11
16 15 15 14 14 13 13 12 12 11 11 11 11 11 11 11 11 12 12 12 13 14 15 16 16 17 16 15 14 12 11 11 11 13 14 13 13 13 11 10 11 11 9 10 10 10 9 10 11 10 10 11 11 11 11 11 11 12 12 12 12 12 11 11 10 9 7 8 10 10 9 10 11 11 12 14 13 12 14 16 16 16 16 16 17 16 13 12
16 16 15 15 15 14 14 13 12 11 11 12 12 11 11 11 11 12 12 12 12 12 14 15 15 17 17 15 13 13 12 12 12 13 14 14 13 12 12 12 11 10 10 11 11 11 11 11 9 8 9 10 11 11 10 11 11 12 13 13 13 13 11 11 10 9 8 7 8 8 7 10 10 10 12 13 12 12 12 15 16 16 16 15 15 15 14 13
17 17 16 16 15 15 15 13 11 11 12 12 12 12 11 11 11 11 11 11 11 11 12 13 13 16 17 15 13 13 12 12 13 14 14 15 14 12 12 12 11 11 12 11 11 12 12 10 9 9 9 10 11 11 12 12 11 11 12 13 13 13 12 12 10 8 7 7 8 8 8 10 10 10 11 11 12 13 12 14 17 17 16 15 15 15 14 13
18 18 17 17 16 16 14 12 11 12 12 12 12 12 11 11 10 10 10 10 11 11 11 11 12 14 16 15 14 12 11 12 15 15 14 15 14 12 11 11 11 12 13 12 11 11 11 10 9 10 11 11 11 12 12 12 11 11 12 13 12 11 11 11 9 8 8 9 9 8 9 10 9 9 10 10 12 13 12 14 16 16 16 16 16 16 15 14
19 18 18 18 17 16 14 13 13 13 13 12 12 12 12 11 10 9 9 9 10 10 10 10 11 13 15 15 14 12 11 12 13 15 16 15 15 13 12 12 11 12 12 11 11 11 11 10 9 9 10 11 11 12 12 11 10 12 12 11 10 11 11 11 9 9 10 10 9 8 9 9 9 10 11 10 11 12 13 15 16 16 18 17 17 16 16 15
19 19 18 18 18 16 15 15 14 13 13 13 13 13 12 11 10 9 8 8 9 9 9 10 11 12 14 15 15 14 12 10 11 14 16 17 15 14 13 13 13 13 13 12 13 13 11 10 10 9 9 11 12 12 12 11 11 13 12 11 11 11 11 11 9 9 10 10 10 10 9 9 10 11 11 10 11 12 13 15 16 17 19 19 18 17 16 16
20 19 19 19 18 18 17 16 15 14 13 13 13 13 12 11 10 8 8 9 9 9 8 10 11 11 13 14 16 16 14 11 10 12 14 17 17 14 13 14 13 13 14 13 14 14 13 13 12 10 10 11 12 12 12 12 11 12 12 11 11 11 10 10 9 10 10 9 12 13 11 11 11 12 12 11 11 12 13 14 15 18 20 20 19 17 17 16
21 20 20 19 18 17 17 17 17 16 14 13 13 13 12 11 9 8 9 10 10 9 9 9 10 11 12 13 14 17 16 13 12 11 12 14 16 15 14 14 13 13 14 13 14 15 14 13 12 11 11 12 12 12 13 13 11 11 10 10 10 11 11 10 10 10 9 10 13 14 13 12 12 13 13 13 13 13 13 14 14 17 19 20 19 18 18 17
22 21 20 19 18 18 17 17 17 16 15 14 14 13 11 11 10 9 10 10 10 10 9 9 11 11 11 12 13 15 15 14 13 12 12 12 14 15 14 14 13 13 13 14 14 14 13 13 13 13 12 11 11 12 12 11 10 9 10 10 11 11 11 11 11 10 10 12 13 13 12 11 12 14 14 14 15 14 14 15 15 16 18 20 20 18 18 18
23 22 21 20 20 19 19 18 17 16 16 15 13 12 12 12 12 12 11 9 9 10 9 9 10 11 12 13 13 13 14 15 14 13 13 13 13 15 15 15 15 13 13 15 15 13 14 15 14 13 12 12 11 12 12 10 9 9 9 10 11 10 10 12 12 12 12 13 13 12 11 12 14 15 15 16 17 16 16 16 15 16 17 19 19 18 18 17
23 23 22 21 21 20 21 21 19 18 17 15 14 13 12 12 13 14 13 11 10 10 10 10 10 11 12 14 14 14 14 15 16 14 14 13 13 15 15 15 14 13 13 14 14 14 14 14 13 12 13 12 12 12 12 11 10 11 11 11 11 10 10 12 13 12 13 13 13 12 13 13 14 14 15 16 17 17 16 15 14 14 15 16 17 17 17 16
24 23 22 21 21 22 22 21 20 20 17 15 14 13 13 13 13 13 13 13 12 11 11 12 12 12 12 13 13 14 14 16 16 15 14 14 14 15 15 15 15 14 13 12 13 14 13 13 13 14 13 12 13 13 13 12 11 12 12 12 12 12 12 13 14 13 13 13 13 13 13 13 13 14 16 16 14 13 13 13 11 11 12 14 15 15 16 15
24 23 22 21 21 22 23 22 21 20 18 16 14 14 16 16 14 12 12 13 13 12 13 13 12 12 12 12 12 12 13 15 15 15 15 16 16 15 15 16 16 15 13 13 14 13 13 14 14 14 13 12 13 13 13 11 11 12 12 11 12 13 12 12 12 13 13 12 12 13 13 13 13 14 15 13 12 11 10 10 9 9 10 12 13 14 15 15
23 21 20 20 21 22 22 22 21 20 19 17 16 17 18 16 14 13 12 12 12 12 12 12 11 11 12 13 12 11 12 13 14 14 16 16 16 16 15 16 17 16 15 15 15 13 13 14 14 13 12 12 13 13 12 12 12 12 13 13 14 13 11 11 11 11 10 11 13 13 13 13 12 13 14 12 11 10 10 10 9 9 10 11 12 13 14 15
21 20 19 19 20 21 22 22 21 21 19 17 18 19 18 17 16 14 13 11 12 11 11 11 11 11 12 13 13 13 12 13 13 14 15 15 15 16 16 16 17 18 17 15 15 16 14 13 14 13 12 13 12 11 11 12 11 11 13 14 13 11 11 11 10 10 9 11 13 12 11 12 12 12 13 12 11 11 10 11 11 10 10 10 11 12 13 14
19 19 18 19 19 20 22 22 21 21 19 18 20 20 18 17 16 15 14 13 13 13 12 12 12 11 11 12 14 14 14 14 14 14 15 15 15 15 16 16 16 17 18 16 15 16 14 13 14 13 13 13 11 10 11 12 11 11 12 13 11 11 13 12 11 11 10 11 12 10 10 11 11 12 12 12 13 12 11 11 11 10 10 10 10 11 12 12
18 17 17 18 18 19 21 22 22 20 19 19 20 19 19 18 17 17 16 15 15 15 14 14 14 12 12 13 13 14 14 15 14 13 14 15 15 15 14 15 15 14 15 15 15 15 14 14 14 13 13 12 11 10 11 12 12 11 11 11 11 11 12 12 12 11 11 11 11 10 10 11 11 11 11 13 14 13 12 12 11 10 10 10 10 11 11 11
16 16 16 16 16 18 20 21 21 20 20 20 20 19 18 18 17 18 18 17 17 16 15 15 14 14 14 13 14 14 14 14 15 14 14 14 15 16 16 15 14 12 11 13 15 15 14 14 14 13 12 11 11 12 12 12 11 11 11 11 11 11 11 11 11 10 10 10 10 9 10 11 11 10 10 12 13 14 14 12 11 11 11 11 10 10 10 10
15 15 15 15 14 17 19 19 20 20 20 19 19 19 18 18 18 18 19 19 18 18 18 17 16 16 16 14 15 15 14 14 15 16 15 14 14 16 17 17 15 13 11 11 13 14 15 14 14 12 10 11 12 12 12 12 11 10 11 12 12 12 12 11 11 11 10 10 10 10 10 12 11 9 10 11 11 13 13 12 11 12 12 11 11 11 11 11
14 15 15 13 14 18 18 18 19 19 19 19 18 18 18 18 18 18 19 19 19 19 19 19 18 18 17 16 15 15 15 14 15 16 17 16 15 15 16 16 16 14 13 12 13 14 14 13 13 12 11 12 12 11 11 11 11 10 10 11 12 12 12 11 12 13 11 10 10 9 9 12 12 10 10 10 10 11 11 12 12 13 12 12 12 12 12 12
13 15 14 12 14 18 16 17 19 18 18 18 17 17 17 17 17 17 18 18 18 19 18 18 18 17 17 16 15 15 14 14 14 16 17 16 15 15 16 15 14 14 14 14 14 14 13 12 13 12 12 12 12 12 12 11 11 11 11 11 11 11 12 12 13 13 12 11 11 9 10 13 12 10 9 9 9 9 9 10 11 11 12 12 12 12 12 12
13 14 13 11 13 17 16 16 18 18 18 17 16 16 17 16 17 17 18 16 17 18 18 17 17 16 16 16 14 14 14 14 14 15 16 17 16 16 16 14 14 15 16 16 15 14 14 14 13 12 11 12 12 13 13 12 12 12 12 12 11 11 11 11 12 11 11 12 12 10 11 13 12 10 9 9 9 8 8 9 10 10 11 12 13 13 13 13
11 12 12 9 9 13 15 16 17 17 17 17 16 16 16 16 16 16 17 16 16 17 17 17 17 16 16 15 14 15 15 14 15 14 15 16 16 16 16 14 14 15 16 16 15 14 14 14 14 14 14 14 14 15 16 15 13 12 12 12 12 11 11 11 11 11 11 13 12 11 12 13 11 9 8 9 9 9 9 9 10 11 12 13 14 14 15 15
9 10 12 10 7 9 13 15 14 14 16 16 16 15 15 15 14 14 14 15 16 16 15 16 16 16 15 15 14 14 14 15 15 14 14 15 17 17 16 15 15 15 16 15 15 14 14 14 14 14 15 15 15 16 17 17 15 14 14 13 13 12 11 11 11 12 13 12 11 13 14 12 11 11 10 10 10 10 11 11 11 12 13 13 14 15 15 15
7 8 11 11 8 7 9 10 11 12 14 15 15 14 13 14 13 13 13 14 15 15 15 15 15 15 16 16 15 15 15 14 14 14 15 15 16 17 15 13 14 15 15 15 15 15 15 14 15 14 13 14 15 14 14 14 15 15 15 14 14 14 12 11 12 13 13 12 12 14 15 13 12 13 12 12 12 12 12 12 11 12 12 13 14 14 14 15
6 6 9 11 10 8 7 7 8 9 10 11 13 13 11 11 12 13 14 14 14 14 15 14 13 14 15 16 16 15 15 14 13 14 15 15 15 16 15 14 15 15 15 16 16 16 16 17 16 15 14 14 14 13 13 12 13 14 15 15 15 14 13 13 14 14 13 13 14 15 14 13 14 14 14 14 14 14 14 13 12 12 13 13 14 14 15 16
6 4 6 9 10 10 9 7 7 7 7 9 10 10 10 10 11 12 13 14 13 13 14 14 14 14 14 14 15 15 15 15 14 14 15 15 16 16 15 16 16 16 15 16 17 17 17 17 17 16 15 14 14 15 14 13 13 14 14 15 15 14 14 14 15 14 12 13 15 14 13 13 15 16 16 16 15 15 14 13 12 13 14 14 14 15 16 17
7 3 4 6 9 10 10 9 7 6 6 8 9 9 9 9 10 11 12 12 13 14 14 14 15 14 13 13 14 15 17 16 15 16 16 15 15 16 16 16 16 16 15 15 16 16 16 16 16 15 14 14 14 15 14 14 15 14 14 15 15 14 14 14 15 15 13 14 15 14 13 15 16 16 16 16 15 14 13 13 14 14 15 14 14 15 16 17
8 5 2 5 7 9 9 10 9 7 6 6 8 8 9 9 9 11 11 10 11 13 14 15 15 15 14 13 13 15 18 18 18 19 18 17 17 17 17 17 16 16 16 16 16 16 15 16 16 14 14 15 15 14 13 13 13 13 13 15 15 15 15 15 16 16 17 17 17 16 16 18 19 18 17 16 14 13 14 15 16 16 16 15 15 16 17 18
10 7 4 2 5 7 9 10 10 9 7 6 7 8 8 9 9 10 11 11 10 11 13 14 15 15 14 13 14 16 18 19 20 21 20 20 20 20 19 19 17 17 17 17 17 17 16 16 16 16 16 17 16 15 15 14 13 14 16 16 16 16 16 15 15 16 17 18 18 18 19 20 21 19 18 17 16 16 16 17 17 17 17 16 17 17 18 19
Wind_Direction
281 279 277 275 272 270 268 267 266 265 264 264 264 263 263 263 263 264 264 263 264 263 263 263 263 264 264 265 266 266 267 265 263 260 255 252 248 245 242 236 235 234 233 233 233 235 235 234 236 235 234 236 238 239 239 238 240 241 242 242 244 242 239 236 231 231 233 240 245 255 259 246 249 248 240 242 243 243 255 266 266 274 276 263 261 245 235 242
281 279 277 275 273 270 268 267 266 265 264 264 264 264 263 263 263 263 263 264 264 263 263 262 263 264 264 265 266 268 268 265 264 260 254 252 248 244 239 234 233 232 230 231 231 231 232 232 234 233 233 236 238 239 239 239 239 239 241 244 244 239 239 236 233 236 236 242 247 248 252 249 247 248 247 246 250 251 255 264 265 267 265 258 250 236 239 241
280 278 277 276 273 271 268 267 266 265 265 265 264 264 264 263 262 263 263 263 263 263 262 262 263 263 264 265 266 268 267 265 262 257 254 252 246 243 237 233 233 231 230 231 231 230 231 231 232 232 233 237 237 238 240 240 239 240 240 244 244 239 241 241 239 240 240 243 247 248 248 250 253 254 253 246 250 257 253 255 259 254 249 247 241 238 244 243
281 279 277 276 274 271 269 267 266 266 265 265 265 265 264 264 263 262 262 263 263 263 263 263 263 263 264 265 266 267 266 264 258 252 253 252 246 241 235 232 232 231 231 231 230 230 231 231 231 232 233 236 238 239 240 239 240 241 239 240 242 239 242 244 242 242 242 241 243 249 250 252 256 254 249 245 253 262 257 253 251 242 238 238 239 243 247 246
282 280 277 276 274 272 270 268 267 266 265 265 265 264 264 264 263 262 262 262 263 263 263 263 263 264 264 265 265 264 262 259 253 250 252 252 247 240 234 231 231 230 230 231 229 229 230 230 231 233 233 236 239 238 239 240 238 241 241 238 241 240 241 246 245 243 243 241 243 249 250 250 254 251 246 247 255 260 257 253 249 241 237 237 238 243 247 246
281 281 279 276 274 272 270 268 267 266 265 265 264 265 264 264 263 262 262 262 263 262 263 263 263 264 264 265 263 259 256 253 253 253 252 250 246 240 234 231 229 229 230 229 229 228 229 229 229 231 231 234 236 235 239 241 237 240 243 241 243 240 239 246 246 244 243 243 243 245 250 251 256 258 251 252 258 260 255 249 248 246 242 238 236 240 242 242
281 281 280 277 275 273 271 269 268 266 266 265 265 265 264 264 263 262 262 262 262 262 263 262 263 264 264 264 259 257 255 254 255 254 251 249 245 240 234 230 228 229 229 227 227 228 228 227 228 229 230 234 234 233 238 240 237 237 241 243 245 244 242 246 248 248 247 246 245 248 254 252 254 258 257 261 261 257 253 248 246 246 241 236 234 236 237 236
280 280 280 279 276 273 272 270 268 267 266 265 265 265 264 264 263 262 262 261 261 262 262 262 262 262 263 261 257 259 257 254 255 253 250 247 245 239 233 231 229 228 227 225 225 226 227 224 225 227 229 233 232 232 236 238 239 237 239 242 244 246 245 247 249 250 249 247 248 251 252 251 251 255 262 269 263 252 248 243 241 239 234 233 231 230 230 231
281 280 280 279 277 275 272 271 269 268 267 266 265 264 264 264 263 262 261 261 261 260 261 261 262 261 259 257 256 259 255 252 255 252 248 247 245 239 233 233 229 226 225 225 224 223 224 224 225 226 228 232 232 233 235 237 241 237 237 241 244 247 248 249 249 248 248 246 245 245 249 253 250 251 264 267 258 249 241 234 232 227 224 225 226 226 226 227
284 280 279 279 278 277 274 271 270 269 268 266 265 264 263 263 262 262 261 261 261 260 260 260 260 259 256 255 253 253 253 253 254 250 248 248 245 237 234 233 227 224 223 224 222 220 221 221 223 225 228 233 232 233 234 233 239 240 240 245 247 250 251 250 249 249 245 243 240 239 248 253 247 247 258 259 249 241 230 225 225 218 215 217 221 224 224 226
287 283 280 278 278 278 275 272 271 270 269 267 265 264 263 262 262 261 261 260 259 259 259 258 259 257 255 255 249 247 252 253 250 249 248 246 241 236 232 229 226 223 221 221 219 217 217 219 223 227 229 234 234 236 239 237 240 245 247 250 250 251 252 248 249 248 242 242 238 235 246 252 249 248 248 244 238 231 220 217 218 211 211 215 218 220 221 226
290 286 282 278 278 278 277 274 272 271 270 268 265 264 262 262 261 261 260 259 258 257 257 256 256 254 255 255 248 246 250 250 249 248 246 244 238 235 232 227 224 221 217 216 215 216 217 221 225 228 232 235 236 238 242 240 241 246 246 248 252 254 253 247 246 243 238 241 236 233 248 252 253 251 241 232 229 227 216 207 209 210 214 217 217 217 222 230
295 290 285 280 278 278 277 275 273 271 270 268 266 264 262 261 261 260 260 259 257 255 254 254 254 254 254 252 247 245 247 247 249 245 242 244 239 233 229 225 222 219 215 211 212 216 219 225 226 229 235 234 234 236 239 241 241 243 242 241 249 254 253 247 243 240 238 241 235 235 250 251 253 248 231 224 221 219 214 205 207 213 217 217 215 218 226 232
300 295 289 284 280 279 278 276 273 271 269 267 265 264 263 261 260 260 259 257 255 253 252 251 251 251 249 247 247 247 246 244 245 242 239 239 235 228 224 220 219 216 212 211 214 219 223 229 229 233 239 233 233 238 240 242 239 240 242 242 247 247 248 249 244 242 244 245 236 235 248 247 247 241 225 220 216 209 209 209 210 213 215 214 214 219 226 231
304 300 294 288 283 280 278 277 274 270 268 266 264 263 262 261 259 259 257 256 254 251 248 249 248 248 250 249 248 247 244 241 240 238 233 229 224 221 217 211 210 210 210 214 219 223 226 230 231 233 238 234 233 236 238 241 238 239 241 245 247 241 245 252 248 240 242 247 237 232 243 243 238 234 224 218 215 208 208 212 213 212 213 214 217 221 226 231
305 303 298 292 286 282 279 277 275 271 268 266 264 262 261 260 259 258 256 254 251 247 245 245 244 243 246 245 243 243 239 238 239 234 228 224 217 215 212 206 208 209 210 217 222 227 231 233 232 231 232 232 229 230 236 240 240 238 236 240 244 241 245 252 251 243 238 241 240 231 232 236 234 230 222 216 215 212 211 213 212 212 213 215 219 224 226 231
306 304 301 296 290 284 279 277 275 272 268 266 264 261 259 258 257 256 254 250 246 243 240 241 242 242 242 240 242 244 240 237 236 228 223 222 216 213 211 209 211 211 213 221 225 229 232 231 231 231 231 231 228 227 233 239 239 237 235 236 239 239 243 249 252 251 242 235 236 231 227 233 234 226 223 220 216 216 216 214 213 214 215 218 222 226 229 232
307 304 302 300 295 288 282 277 275 273 269 266 263 260 257 255 255 254 251 245 240 239 239 239 237 237 238 237 237 243 244 238 231 224 220 218 215 213 213 212 214 214 217 221 223 225 228 229 230 231 235 235 229 223 226 231 228 229 235 238 242 243 242 247 249 251 250 236 228 227 228 234 233 224 225 225 219 218 216 210 210 212 214 219 224 227 230 233
307 305 303 301 298 292 286 279 276 273 269 264 261 258 255 253 254 252 247 242 237 237 239 234 228 230 234 235 236 242 247 238 226 221 218 214 212 212 214 216 218 218 217 217 222 223 223 229 233 231 233 233 226 216 217 224 221 224 232 233 242 248 247 249 247 250 251 236 227 225 226 230 227 224 226 225 222 219 216 211 209 211 216 221 225 227 229 230
306 304 302 300 299 295 289 281 275 272 268 262 258 257 254 252 253 251 248 245 243 243 243 236 230 235 240 241 239 241 246 237 223 219 215 210 205 205 210 214 217 220 216 211 218 224 221 227 234 229 225 223 220 216 217 223 222 227 233 233 241 247 252 255 250 256 246 228 230 226 220 224 222 223 224 220 221 219 216 217 215 214 219 221 224 227 227 228
305 303 300 299 298 296 292 284 275 270 267 260 256 256 255 254 254 254 253 251 249 246 245 240 234 235 239 239 237 237 241 236 227 222 217 213 207 207 212 209 208 217 217 208 213 224 221 225 230 223 217 215 215 218 222 226 226 229 233 235 241 243 251 255 250 261 248 223 234 227 215 223 222 220 221 217 220 221 216 217 220 220 220 221 224 227 227 229
302 300 298 297 295 294 292 286 276 269 265 260 256 255 258 259 258 259 260 257 253 246 243 241 236 235 236 237 238 235 231 229 232 227 217 213 212 211 212 206 205 212 214 206 212 225 224 224 223 215 210 212 217 217 219 226 227 228 228 229 238 243 254 257 250 259 248 223 231 224 212 223 228 225 221 216 221 226 222 219 221 219 218 221 224 225 226 229
299 298 296 294 292 291 289 285 276 267 262 257 254 255 260 265 264 263 261 259 256 248 242 238 233 232 233 236 235 228 223 222 227 228 217 210 212 212 209 206 207 209 209 206 208 215 218 215 211 204 202 211 223 222 216 225 229 226 224 228 240 247 249 248 249 259 250 226 221 215 211 225 234 232 227 225 229 236 233 228 227 222 220 223 223 223 223 225
296 295 294 292 290 288 286 283 273 263 258 254 253 256 262 269 270 264 259 258 256 248 242 237 230 228 228 231 228 220 222 223 223 225 217 209 210 212 211 209 207 210 212 209 205 208 213 213 208 204 203 209 224 228 220 224 233 233 229 228 239 246 240 236 245 255 249 235 217 209 217 228 232 229 230 236 242 245 238 232 232 228 226 226 224 224 224 225
292 291 291 290 288 286 285 279 266 258 258 255 255 260 264 272 273 263 258 261 257 249 244 237 230 226 223 224 222 217 223 228 224 221 215 209 208 211 214 212 210 214 212 204 203 210 218 221 219 223 222 216 222 229 223 217 226 239 235 230 234 237 238 240 245 243 235 235 227 215 217 230 235 229 230 238 241 241 236 230 231 229 227 227 225 226 226 228
290 288 287 286 285 285 281 271 262 262 261 255 257 263 264 271 274 262 257 263 258 248 241 234 228 224 220 220 219 216 225 233 226 219 215 211 210 211 214 215 214 214 209 205 209 215 224 229 226 232 232 220 221 231 227 215 218 234 234 229 232 231 235 243 241 228 222 225 228 219 210 223 234 228 231 236 233 235 235 232 230 226 227 229 229 228 226 228
289 287 285 282 281 281 273 264 265 265 258 256 260 263 263 266 268 260 257 263 256 244 236 231 227 223 220 219 214 211 225 232 224 220 217 212 212 213 214 216 216 215 212 213 220 220 226 236 238 241 234 221 222 230 227 213 215 233 233 225 229 230 232 237 229 221 224 224 232 231 213 217 228 227 237 241 231 237 240 234 232 228 227 231 232 230 229 228
289 286 283 279 277 274 266 263 266 260 255 258 262 260 260 264 262 255 252 252 247 241 235 230 226 224 222 219 214 214 226 229 222 224 219 211 212 216 219 218 213 218 221 217 224 228 228 235 240 241 235 226 226 228 220 212 224 240 236 226 230 229 227 230 226 226 231 228 234 241 226 222 231 232 242 247 237 241 245 238 235 232 230 231 231 231 231 229
288 285 281 277 274 269 262 259 258 255 255 260 260 258 259 260 257 251 245 243 243 241 236 230 228 228 225 222 221 223 229 227 221 223 218 213 216 218 222 220 213 222 230 223 225 234 235 236 237 235 235 231 230 229 219 215 232 242 235 232 236 233 227 227 225 227 235 232 233 241 235 228 237 239 242 249 246 244 248 247 240 234 233 232 231 231 231 228
286 283 280 276 271 265 259 256 254 252 255 259 259 258 256 254 251 247 243 242 242 241 236 232 231 227 221 223 227 228 228 227 222 221 219 218 219 221 224 223 220 228 237 236 233 237 243 243 239 236 235 231 227 229 226 224 232 237 238 239 237 237 235 233 233 228 232 239 237 240 237 229 239 244 238 242 248 245 249 255 247 238 235 233 230 229 227 226
284 281 278 273 267 262 257 254 251 246 249 257 258 253 249 248 245 237 238 243 244 243 238 235 235 228 221 225 229 227 224 224 223 220 222 223 223 224 226 226 227 232 241 245 239 240 247 244 242 244 238 228 225 229 232 236 240 237 238 233 227 234 235 233 239 233 230 241 241 239 237 230 238 244 240 243 250 249 248 252 248 240 234 231 230 228 226 226
283 279 275 269 263 259 253 250 248 245 249 255 254 246 239 243 242 235 239 249 247 240 235 234 235 231 228 231 232 228 222 222 222 219 219 223 224 223 224 224 224 231 240 241 237 241 243 239 244 250 240 226 223 229 235 246 251 240 234 227 222 230 231 230 237 236 234 238 238 238 239 239 242 246 246 248 252 255 252 250 249 243 233 227 226 226 225 225
283 278 274 266 260 256 252 250 249 248 250 249 245 241 235 237 240 238 240 244 240 234 231 235 238 234 231 231 233 231 226 225 225 222 220 222 224 224 225 224 221 226 235 235 233 237 240 244 248 248 244 232 222 224 233 242 245 236 228 224 221 223 226 232 236 238 239 238 238 241 244 246 249 252 253 253 256 258 255 250 248 244 232 223 221 220 221 223
283 278 271 264 257 254 251 249 246 244 244 240 237 237 231 233 240 241 240 240 239 238 237 240 243 240 233 229 231 229 226 228 225 222 223 222 222 225 227 226 223 226 232 233 232 229 229 240 242 236 241 238 228 227 229 232 237 237 229 222 223 224 224 231 234 234 237 238 241 246 247 246 248 254 259 257 257 258 256 250 244 237 226 217 215 215 216 220
283 276 269 262 257 252 248 244 241 238 237 234 234 233 229 233 239 240 239 239 239 242 245 246 244 242 237 231 232 230 225 228 226 224 225 223 223 224 224 226 226 226 229 232 235 229 224 233 238 238 240 236 235 237 232 231 238 238 229 223 230 229 226 232 234 231 232 238 245 247 248 249 249 256 263 260 257 258 258 250 236 227 221 213 212 213 215 218
282 274 267 260 255 250 243 239 236 234 232 231 233 234 232 234 236 235 237 238 237 241 247 247 240 239 239 232 233 235 229 227 227 227 228 226 226 227 227 228 228 226 227 230 233 230 226 233 240 242 242 235 233 233 230 232 237 236 230 228 232 229 223 227 236 240 239 240 247 248 250 256 256 257 262 260 255 256 256 251 237 224 217 209 210 212 212 213
282 274 264 257 255 250 240 234 231 229 229 231 234 236 235 235 234 233 237 239 236 237 241 241 236 235 237 231 230 235 234 230 229 228 228 227 226 227 230 232 230 228 228 229 232 230 224 232 240 237 236 241 236 226 226 231 229 230 232 229 230 232 229 228 236 249 248 243 250 254 253 256 253 251 256 257 253 251 254 255 249 235 221 213 213 213 211 214
281 272 260 258 260 249 236 229 225 225 228 233 236 239 237 236 236 235 239 241 239 239 238 235 233 233 233 229 228 233 232 229 229 228 228 228 226 225 228 232 232 231 231 228 231 231 224 229 241 236 233 243 242 225 230 239 232 228 230 229 228 233 234 233 234 240 241 243 250 255 255 251 244 245 253 254 248 245 246 249 250 243 230 221 220 215 213 219
278 267 258 264 264 245 229 223 222 224 230 234 237 239 238 236 238 238 241 242 238 237 236 231 231 235 235 229 227 231 231 225 225 227 227 227 227 225 226 229 231 234 233 226 225 229 225 225 236 238 233 239 240 228 230 240 241 234 232 234 234 231 229 230 232 233 234 238 243 248 255 251 241 241 247 249 247 241 234 233 237 236 229 226 225 219 218 224
274 262 257 268 261 234 221 220 222 226 232 235 236 238 239 237 237 237 238 239 235 233 232 230 231 235 237 235 231 231 231 228 226 224 226 229 229 229 229 227 229 235 234 227 224 227 227 224 229 237 239 235 232 228 225 230 237 237 234 237 238 234 228 229 235 237 231 231 234 239 250 251 243 238 241 248 248 240 232 229 231 228 224 223 222 222 229 234
272 257 257 269 252 225 218 221 226 230 233 236 236 237 239 237 235 236 237 236 234 232 231 230 233 235 235 238 237 233 233 234 231 225 225 230 227 228 233 230 228 232 231 228 228 227 225 223 223 231 236 228 228 233 231 228 229 228 229 232 231 228 224 225 236 241 235 232 233 233 243 249 243 237 242 248 248 242 233 227 229 229 225 224 225 226 232 235
269 253 258 268 244 223 222 227 232 233 231 234 236 236 238 237 234 235 235 234 232 231 231 231 234 234 233 235 236 232 232 234 232 223 222 227 227 225 229 227 224 226 223 225 232 229 224 223 222 227 231 228 231 238 235 227 225 225 228 228 228 230 229 226 234 238 235 236 235 233 241 246 243 242 246 249 250 247 234 221 221 227 228 230 233 232 232 232
268 253 257 265 240 225 227 233 235 235 233 235 238 236 236 236 233 231 231 231 230 228 229 231 232 231 231 233 234 231 230 231 229 223 220 225 229 226 225 223 223 226 225 227 233 232 228 226 222 225 233 235 236 238 234 229 229 230 234 233 231 236 235 232 234 234 232 234 233 234 243 245 244 249 252 252 252 247 235 221 217 223 229 232 233 232 232 234
269 252 252 262 241 225 226 231 232 234 234 236 237 237 236 233 231 228 227 230 231 229 229 232 233 232 232 232 232 232 231 229 231 230 225 224 226 227 228 225 221 227 229 227 229 231 233 232 224 221 226 232 237 239 237 238 237 233 237 243 240 237 238 239 239 237 234 234 229 229 239 242 244 250 255 257 253 241 231 222 216 219 225 228 230 231 232 235
274 250 244 254 242 223 224 228 229 231 232 232 235 238 238 234 232 229 224 227 231 229 229 232 233 234 235 233 233 238 238 233 233 235 232 230 231 235 237 229 222 225 226 223 225 228 231 232 228 224 224 227 234 238 235 235 238 237 241 249 247 242 243 242 240 239 238 238 235 231 232 236 246 256 258 257 253 244 239 232 226 225 225 224 226 228 231 235
278 250 240 240 237 226 224 227 227 228 228 227 229 235 236 232 232 231 223 223 229 228 227 232 234 233 236 235 233 239 243 240 237 235 235 236 235 237 240 234 229 230 223 219 225 227 229 234 233 229 228 227 230 236 235 231 232 235 242 249 250 247 246 243 242 242 238 236 240 239 232 231 244 255 257 257 255 250 249 247 243 240 237 234 234 234 236 239
287 254 238 228 228 228 223 227 230 229 228 225 223 229 233 228 227 230 226 224 229 229 227 232 234 232 235 235 231 235 242 243 240 237 237 238 235 237 239 233 235 240 232 227 232 230 231 238 236 234 235 233 230 234 236 233 230 232 237 245 251 252 248 243 245 244 238 235 240 241 234 229 239 250 253 255 256 254 256 257 253 250 248 247 247 246 247 248
308 261 239 224 221 220 214 220 228 224 220 218 215 219 225 224 223 227 229 227 229 230 228 232 238 237 236 235 231 234 240 240 241 241 238 238 236 237 239 236 240 246 240 236 238 233 232 237 237 236 238 237 234 233 233 233 234 234 237 242 248 251 247 243 246 248 243 240 236 233 232 233 241 249 252 253 255 254 256 258 256 256 257 256 256 258 259 259
337 285 246 224 216 218 214 214 219 215 214 214 214 217 221 223 224 226 228 228 230 234 230 229 237 240 238 236 232 235 239 237 237 239 237 237 237 236 237 239 243 249 245 241 241 238 235 238 239 237 236 238 238 236 232 234 239 242 244 245 244 246 246 246 247 247 244 241 235 229 233 240 244 248 252 254 255 253 254 259 261 264 265 263 263 265 265 265
359 333 265 227 217 223 224 224 224 219 224 227 224 228 231 229 228 228 230 228 229 236 235 229 233 237 236 237 233 233 237 234 233 235 234 235 238 236 234 236 240 246 246 242 243 242 238 237 238 236 236 242 245 242 238 238 239 241 247 249 245 244 249 251 250 247 243 240 238 235 238 245 248 250 253 255 256 256 260 265 266 267 269 268 269 270 269 268
9 359 304 233 225 231 231 230 229 223 228 234 230 235 239 239 237 232 230 231 230 232 235 232 234 237 238 240 237 236 238 235 232 235 233 232 236 237 237 237 239 243 246 244 244 246 242 239 240 238 237 242 246 243 238 236 238 242 249 251 248 245 245 246 248 249 243 236 238 240 241 245 249 253 254 256 258 261 264 267 267 268 270 270 271 271 271 271
12 11 359 249 229 237 234 231 232 227 227 236 238 241 244 248 248 235 228 234 238 236 237 236 236 238 241 244 245 245 244 241 238 240 239 236 238 240 241 243 243 242 244 244 244 245 243 240 241 241 239 243 247 245 240 240 243 247 248 248 246 243 240 241 247 251 246 239 238 241 241 244 250 253 254 257 260 263 265 267 269 270 271 271 271 271 271 272